sat.trackr.live / text

‹ back to catalog

STARLINK-11740 [DTC]

NORAD 64382 · 2025-127N

PAYLOAD ACTIVE UNKNOWN

§ Identity

Operator
Country
US
Launch date
2025-06-13
Launch site
AFETR
Launch vehicle
Mass (kg)
RCS (m²)

Purposes: comms

External: N2YO · Heavens-Above · Gunter

§ Orbital elements

Epoch: 2026-05-24T21:53:02.290848Z

Period
91.67 min
Inclination
43.0018°
Eccentricity
0.0002303
Mean motion
15.70883567 rev/d
Perigee alt
354.8 km
Apogee alt
357.9 km
Semi-major
6,734.5 km
B*
1.5483e-3
RAAN
344.7782°
Arg perigee
266.6308°
Mean anomaly
93.4296°
Rev number
5,549

§ Raw data

STARLINK-11740 [DTC]1 64382U 25127N   26144.91183207  .00203539  00000+0  15483-2 0  99922 64382  43.0018 344.7782 0002303 266.6308  93.4296 15.70883567 55491

JSON: /api/v1/satellites/64382 · /tle

For live sub-satellite position, see the globe view (requires WebGL).

§ Visibility from observer

Set your observer location to see the next 7 days of passes ≥ 10°. The values pass through the URL so the page stays shareable.

No JS? Fill the form by hand. The geolocation button needs JavaScript.